FW9914 Weather Reports


Display with metric or nautical units.
time (UTC)temp
F
wind
direction
speed
MPH
gust
MPH
rain 1hr
in
rain 24hr
in
rain mn
in
humidity
%
barometer
mb
20260504030125 51 157 0.0 0.0 0.00 0.00 0.00 52 1013.1
20260504020144 55 157 0.0 0.0 0.00 0.00 0.00 45 1012.4
20260504010132 57 157 0.0 0.0 0.00 0.00 0.00 45 1011.8
20260504000125 63 157 0.0 0.0 0.00 0.00 0.00 37 1011.1
20260503230132 64 157 0.0 0.0 0.00 0.00 0.00 36 1010.6
20260503220107 67 158 0.0 0.0 0.00 0.00 0.00 33 1010.6
20260503210129 68 157 0.0 0.0 0.00 0.00 0.00 31 1010.6
20260503200202 70 159 0.0 0.0 0.00 0.00 0.00 29 1010.8
20260503190156 69 157 0.0 0.0 0.00 0.00 0.00 30 1011.3
20260503170137 67 158 0.0 0.0 0.00 0.00 0.00 31 1011.5
20260503160128 63 158 0.0 0.0 0.00 0.00 0.00 36 1011.9
20260503150116 59 158 0.0 0.0 0.00 0.00 0.00 38 1012.1
20260503120149 42 164 0.0 0.0 0.00 0.00 0.00 58 1011.7
20260503110110 41 164 0.0 0.0 0.00 0.00 0.00 61 1012.3
20260503100129 41 164 0.0 0.0 0.00 0.00 0.00 62 1012.3
20260503090154 44 164 0.0 0.0 0.00 0.00 0.00 50 1012.3
20260503080204 46 164 0.0 0.0 0.00 0.00 0.00 47 1012.3
20260503070114 48 164 0.0 0.0 0.00 0.00 0.00 53 1012.2
20260503060140 53 164 0.0 0.0 0.00 0.00 0.00 41 1012.3
20260503050116 48 164 0.0 0.0 0.00 0.00 0.00 54 1012.0
20260503040126 53 164 0.0 0.0 0.00 0.00 0.00 49 1011.9